Hourly Data Report for October 23, 2015

All times are specified in Local Standard Time (LST). Add 1 hour to adjust for Daylight Saving Time where and when it is observed.

HALL BEACH A
NUNAVUT

68°46'33.000" N
81°14'33.000" W
9.10 m
2402354
71293
YUX

Download Data

Hourly Data (October 2015)
Hourly Data Report for October 23, 2015
Temp Definition
°C
Dew Point Temp Definition
°C
Rel Hum Definition
%
Wind Dir Definition
10's deg

Wind Spd Definition
km/h
Visibility Definition
km
Stn Press Definition
kPa
Hmdx Definition


Wind Chill Definition


Weather Definition


TIME
00:00 Legend Double Dagger -13.5 -17.0 75 18 17 16.1 101.09   -22 LegendNANA
01:00 Legend Double Dagger -12.3 -16.9 69 24 24 16.1 100.99   -22 LegendNANA
02:00 Legend Double Dagger -13.0 -16.0 79 25 24 16.1 100.93   -22 LegendNANA
03:00 Legend Double Dagger -12.4 -14.9 82 25 15 16.1 100.87   -20 LegendNANA
04:00 Legend Double Dagger -10.6 -12.7 85 23 9 16.1 100.81   -16 LegendNANA
05:00 Legend Double Dagger -8.2 -10.3 85 LegendMM 4 16.1 100.72   -10 LegendNANA
06:00 Legend Double Dagger -6.8 -7.8 93 24 15 2.8 100.64   -13 Snow
07:00 Legend Double Dagger -6.1 -6.8 95 22 4 2.0 100.55   -8 Snow
08:00 Legend Double Dagger -5.0 -5.5 96 24 9 1.6 100.44   -9 Snow
09:00 Legend Double Dagger -4.5 -5.0 96 23 9 3.2 100.33   -8 Snow
10:00 Legend Double Dagger -4.4 -4.8 97 23 9 4.0 100.24   -8 Snow
11:00 Legend Double Dagger -3.4 -4.0 96 24 17 4.0 100.14   -9 Snow
12:00 Legend Double Dagger -3.7 -4.3 96 26 13 8.1 100.07   -9 Snow
13:00 Legend Double Dagger -4.0 -4.5 96 28 11 4.0 100.00   -8 Snow
14:00 Legend Double Dagger -4.5 -4.9 97 32 11 6.4 99.94   -9 Snow
15:00 Legend Double Dagger -4.7 -5.2 96 33 15 4.8 99.90   -10 Snow
16:00 Legend Double Dagger -4.1 -5.1 93 1 18 3.2 99.85   -10 Snow
17:00 Legend Double Dagger -3.7 -5.0 91 2 24 9.7 99.80   -11 Snow
18:00 Legend Double Dagger -4.4 -5.8 90 3 32 4.8 99.79   -12 Snow
19:00 Legend Double Dagger -5.5 -6.7 91 2 37 3.2 99.79   -14 Snow
20:00 Legend Double Dagger -6.7 -8.0 90 36 39 2.0 99.80   -16 Snow
21:00 Legend Double Dagger -7.1 -8.6 89 36 34 2.4 99.79   -16 Snow
22:00 Legend Double Dagger -7.3 -8.7 90 2 41 2.0 99.73   -17 Snow
23:00 Legend Double Dagger -7.4 -8.9 89 36 34 2.4 99.71   -17 Snow

Notes on Data Quality.

Legend

  • E = Estimated
  • M = Missing
  • NA = Not Available
  • ‡ = Partner data that is not subject to review by the National Climate Archives
Date modified: